| time (UTC) | temp C | wind direction | speed KPH | gust KPH | rain 1hr cm | rain 24hr cm | rain mn cm | humidity % | barometer mb |
| 20260906133353 | 22 | 68 | 0.0 | 0.0 | 0.00 | 0.00 | 0.00 | 95 | 1020.3 |
| 20260906132849 | 22 | 93 | 1.6 | 3.2 | 0.00 | 0.00 | 0.00 | 95 | 1020.3 |
| 20260906132344 | 22 | 123 | 1.6 | 3.2 | 0.00 | 0.00 | 0.00 | 95 | 1020.1 |
| 20260906131840 | 22 | 96 | 0.0 | 0.0 | 0.00 | 0.00 | 0.00 | 95 | 1020.2 |
| 20260906131336 | 22 | 61 | 0.0 | 0.0 | 0.00 | 0.00 | 0.00 | 95 | 1020.2 |
| 20260906130831 | 22 | 96 | 0.0 | 1.6 | 0.00 | 0.00 | 0.00 | 95 | 1020.3 |
| 20260906130330 | 22 | 81 | 0.0 | 1.6 | 0.00 | 0.00 | 0.00 | 95 | 1020.2 |
| 20260906125830 | 22 | 48 | 0.0 | 1.6 | 0.00 | 0.00 | 0.00 | 95 | 1020.1 |
| 20260906125326 | 22 | 73 | 0.0 | 0.0 | 0.00 | 0.00 | 0.00 | 95 | 1020.1 |
| 20260906124822 | 22 | 40 | 0.0 | 0.0 | 0.00 | 0.00 | 0.00 | 95 | 1020.0 |
| 20260906124318 | 22 | 84 | 0.0 | 0.0 | 0.00 | 0.00 | 0.00 | 95 | 1020.2 |
| 20260906123817 | 22 | 79 | 0.0 | 0.0 | 0.00 | 0.00 | 0.00 | 96 | 1020.3 |
| 20260906123312 | 22 | 64 | 0.0 | 1.6 | 0.00 | 0.00 | 0.00 | 95 | 1020.1 |
| 20260906122811 | 22 | 89 | 0.0 | 0.0 | 0.00 | 0.00 | 0.00 | 95 | 1019.9 |
| 20260906122307 | 22 | 94 | 1.6 | 3.2 | 0.00 | 0.00 | 0.00 | 95 | 1019.9 |
| 20260906121804 | 22 | 84 | 0.0 | 0.0 | 0.00 | 0.00 | 0.00 | 95 | 1019.6 |
| 20260906121259 | 22 | 69 | 0.0 | 0.0 | 0.00 | 0.00 | 0.00 | 95 | 1019.4 |
| 20260906120755 | 22 | 96 | 0.0 | 0.0 | 0.00 | 0.00 | 0.00 | 95 | 1019.4 |
| 20260906120251 | 22 | 85 | 0.0 | 0.0 | 0.00 | 0.00 | 0.00 | 95 | 1019.3 |
| 20260906115746 | 22 | 84 | 0.0 | 0.0 | 0.00 | 0.00 | 0.00 | 95 | 1019.2 |
| 20260906115241 | 22 | 86 | 0.0 | 0.0 | 0.00 | 0.00 | 0.00 | 95 | 1019.3 |
| 20260906114740 | 22 | 11 | 0.0 | 0.0 | 0.00 | 0.00 | 0.00 | 95 | 1019.1 |
| 20260906114236 | 22 | 143 | 0.0 | 0.0 | 0.00 | 0.00 | 0.00 | 95 | 1019.2 |
| 20260906113731 | 22 | 91 | 0.0 | 0.0 | 0.00 | 0.00 | 0.00 | 95 | 1019.0 |
| 20260906113231 | 22 | 97 | 0.0 | 0.0 | 0.00 | 0.00 | 0.00 | 95 | 1018.9 |
| 20260906112730 | 22 | 97 | 0.0 | 0.0 | 0.00 | 0.00 | 0.00 | 94 | 1018.9 |
| 20260906112227 | 22 | 98 | 0.0 | 0.0 | 0.00 | 0.00 | 0.00 | 94 | 1018.7 |
| 20260906111726 | 22 | 99 | 0.0 | 0.0 | 0.00 | 0.00 | 0.00 | 94 | 1018.8 |
| 20260906111221 | 22 | 79 | 0.0 | 0.0 | 0.00 | 0.00 | 0.00 | 94 | 1018.9 |
| 20260906110716 | 22 | 79 | 0.0 | 0.0 | 0.00 | 0.00 | 0.00 | 94 | 1018.7 |
| 20260906110212 | 22 | 79 | 0.0 | 0.0 | 0.00 | 0.00 | 0.00 | 94 | 1018.8 |
| 20260906105705 | 22 | 79 | 0.0 | 0.0 | 0.00 | 0.00 | 0.00 | 94 | 1018.7 |
| 20260906105202 | 22 | 79 | 0.0 | 0.0 | 0.00 | 0.00 | 0.00 | 94 | 1018.5 |
| 20260906104701 | 22 | 79 | 0.0 | 0.0 | 0.00 | 0.00 | 0.00 | 94 | 1018.6 |
| 20260906104200 | 23 | 79 | 0.0 | 0.0 | 0.00 | 0.00 | 0.00 | 94 | 1018.7 |
| 20260906103658 | 23 | 80 | 0.0 | 0.0 | 0.00 | 0.00 | 0.00 | 94 | 1018.7 |
| 20260906103154 | 23 | 80 | 0.0 | 0.0 | 0.00 | 0.00 | 0.00 | 94 | 1018.5 |
| 20260906102649 | 23 | 80 | 0.0 | 0.0 | 0.00 | 0.00 | 0.00 | 94 | 1018.5 |
| 20260906102148 | 23 | 82 | 0.0 | 0.0 | 0.00 | 0.00 | 0.00 | 93 | 1018.5 |
| 20260906101648 | 23 | 83 | 0.0 | 0.0 | 0.00 | 0.00 | 0.00 | 93 | 1018.4 |
| 20260906101143 | 23 | 86 | 0.0 | 0.0 | 0.00 | 0.00 | 0.00 | 93 | 1018.3 |
| 20260906100639 | 23 | 104 | 0.0 | 0.0 | 0.00 | 0.00 | 0.00 | 93 | 1018.2 |
| 20260906100133 | 23 | 84 | 0.0 | 0.0 | 0.00 | 0.00 | 0.00 | 93 | 1018.2 |
| 20260906095628 | 23 | 63 | 0.0 | 0.0 | 0.00 | 0.00 | 0.00 | 93 | 1018.1 |
| 20260906095124 | 23 | 63 | 0.0 | 0.0 | 0.00 | 0.00 | 0.00 | 93 | 1018.2 |
| 20260906094622 | 23 | 63 | 0.0 | 0.0 | 0.00 | 0.00 | 0.00 | 93 | 1018.1 |
| 20260906094119 | 23 | 63 | 0.0 | 0.0 | 0.00 | 0.00 | 0.00 | 93 | 1018.2 |
| 20260906093614 | 23 | 64 | 0.0 | 0.0 | 0.00 | 0.00 | 0.00 | 92 | 1018.2 |
| 20260906093109 | 23 | 63 | 0.0 | 0.0 | 0.00 | 0.00 | 0.00 | 92 | 1018.0 |
| 20260906092603 | 23 | 64 | 0.0 | 0.0 | 0.00 | 0.00 | 0.00 | 92 | 1017.9 |
| 20260906092059 | 24 | 62 | 0.0 | 0.0 | 0.00 | 0.00 | 0.00 | 92 | 1017.9 |
| 20260906091554 | 24 | 62 | 0.0 | 0.0 | 0.00 | 0.00 | 0.00 | 91 | 1017.8 |
| 20260906091051 | 24 | 62 | 0.0 | 0.0 | 0.00 | 0.00 | 0.00 | 91 | 1017.6 |
| 20260906090550 | 24 | 67 | 0.0 | 0.0 | 0.00 | 0.00 | 0.00 | 91 | 1017.7 |
| 20260906090045 | 24 | 67 | 0.0 | 0.0 | 0.00 | 0.00 | 0.00 | 91 | 1017.7 |
| 20260906085544 | 25 | 67 | 0.0 | 0.0 | 0.00 | 0.00 | 0.00 | 90 | 1017.7 |
| 20260906085044 | 25 | 66 | 0.0 | 0.0 | 0.00 | 0.00 | 0.00 | 90 | 1017.7 |
| 20260906084539 | 25 | 66 | 0.0 | 0.0 | 0.00 | 0.00 | 0.00 | 90 | 1017.6 |
| 20260906084037 | 25 | 72 | 0.0 | 0.0 | 0.00 | 0.00 | 0.00 | 90 | 1017.7 |
| 20260906083533 | 25 | 78 | 0.0 | 0.0 | 0.00 | 0.00 | 0.00 | 90 | 1017.7 |
| 20260906083033 | 25 | 69 | 0.0 | 0.0 | 0.00 | 0.00 | 0.00 | 90 | 1017.7 |
| 20260906082528 | 25 | 70 | 0.0 | 0.0 | 0.00 | 0.00 | 0.00 | 89 | 1017.6 |
| 20260906082024 | 25 | 68 | 0.0 | 0.0 | 0.00 | 0.00 | 0.00 | 89 | 1017.8 |
| 20260906081519 | 25 | 73 | 0.0 | 0.0 | 0.00 | 0.00 | 0.00 | 89 | 1017.7 |
| 20260906081015 | 25 | 81 | 0.0 | 0.0 | 0.00 | 0.00 | 0.00 | 89 | 1017.7 |
| 20260906080512 | 25 | 78 | 0.0 | 0.0 | 0.00 | 0.00 | 0.00 | 89 | 1017.6 |
| 20260906080007 | 25 | 78 | 0.0 | 0.0 | 0.00 | 0.00 | 0.00 | 88 | 1017.5 |
| 20260906075501 | 25 | 78 | 0.0 | 0.0 | 0.00 | 0.00 | 0.00 | 87 | 1017.5 |
| 20260906074956 | 25 | 80 | 0.0 | 0.0 | 0.00 | 0.00 | 0.00 | 87 | 1017.5 |
| 20260906074451 | 25 | 80 | 0.0 | 0.0 | 0.00 | 0.00 | 0.00 | 87 | 1017.4 |
| 20260906073949 | 25 | 80 | 0.0 | 0.0 | 0.00 | 0.00 | 0.00 | 86 | 1017.6 |
| 20260906073444 | 25 | 78 | 0.0 | 0.0 | 0.00 | 0.00 | 0.00 | 86 | 1017.6 |
| 20260906072941 | 25 | 83 | 0.0 | 0.0 | 0.00 | 0.00 | 0.00 | 86 | 1017.5 |
| 20260906072436 | 26 | 92 | 0.0 | 1.6 | 0.00 | 0.00 | 0.00 | 86 | 1017.5 |
| 20260906071932 | 26 | 82 | 0.0 | 1.6 | 0.00 | 0.00 | 0.00 | 85 | 1017.4 |
| 20260906071428 | 26 | 79 | 0.0 | 0.0 | 0.00 | 0.00 | 0.00 | 85 | 1017.5 |
| 20260906070924 | 26 | 78 | 0.0 | 0.0 | 0.00 | 0.00 | 0.00 | 85 | 1017.6 |
| 20260906070419 | 26 | 88 | 0.0 | 0.0 | 0.00 | 0.00 | 0.00 | 85 | 1017.6 |
| 20260906065915 | 26 | 107 | 0.0 | 0.0 | 0.00 | 0.00 | 0.00 | 86 | 1017.7 |
| 20260906065409 | 26 | 78 | 0.0 | 0.0 | 0.00 | 0.00 | 0.00 | 86 | 1017.8 |
| 20260906064904 | 26 | 109 | 1.6 | 3.2 | 0.00 | 0.00 | 0.00 | 86 | 1017.8 |
| 20260906064400 | 26 | 131 | 0.0 | 0.0 | 0.00 | 0.00 | 0.00 | 86 | 1017.8 |
| 20260906063855 | 26 | 72 | 0.0 | 0.0 | 0.00 | 0.00 | 0.00 | 87 | 1017.8 |
| 20260906063350 | 26 | 90 | 0.0 | 0.0 | 0.00 | 0.00 | 0.00 | 88 | 1017.8 |
| 20260906062845 | 26 | 32 | 0.0 | 0.0 | 0.00 | 0.00 | 0.00 | 88 | 1017.8 |
| 20260906062344 | 26 | 70 | 0.0 | 0.0 | 0.00 | 0.00 | 0.00 | 88 | 1017.8 |
| 20260906061839 | 26 | 73 | 0.0 | 0.0 | 0.00 | 0.00 | 0.00 | 87 | 1017.8 |
| 20260906061330 | 26 | 101 | 0.0 | 0.0 | 0.00 | 0.00 | 0.00 | 87 | 1017.7 |
| 20260906060830 | 27 | 72 | 0.0 | 0.0 | 0.00 | 0.00 | 0.00 | 87 | 1018.0 |
| 20260906060328 | 27 | 67 | 0.0 | 0.0 | 0.00 | 0.00 | 0.00 | 86 | 1017.9 |
| 20260906055823 | 27 | 64 | 0.0 | 0.0 | 0.00 | 0.00 | 0.00 | 86 | 1018.0 |
| 20260906055319 | 27 | 86 | 0.0 | 0.0 | 0.00 | 0.00 | 0.00 | 86 | 1018.1 |
| 20260906054814 | 27 | 74 | 0.0 | 0.0 | 0.00 | 0.00 | 0.00 | 85 | 1018.0 |
| 20260906054309 | 27 | 112 | 0.0 | 0.0 | 0.00 | 0.00 | 0.00 | 85 | 1018.0 |
| 20260906053806 | 27 | 87 | 0.0 | 0.0 | 0.00 | 0.00 | 0.00 | 85 | 1018.1 |
| 20260906053301 | 26 | 76 | 0.0 | 0.0 | 0.00 | 0.00 | 0.00 | 86 | 1017.9 |
| 20260906052756 | 26 | 110 | 0.0 | 0.0 | 0.00 | 0.00 | 0.00 | 87 | 1017.9 |
| 20260906052252 | 26 | 83 | 0.0 | 0.0 | 0.00 | 0.00 | 0.00 | 88 | 1018.0 |
| 20260906051749 | 26 | 83 | 0.0 | 0.0 | 0.00 | 0.00 | 0.00 | 87 | 1017.9 |
| 20260906051248 | 26 | 83 | 0.0 | 0.0 | 0.00 | 0.00 | 0.00 | 87 | 1017.8 |
| 20260906050744 | 26 | 83 | 0.0 | 0.0 | 0.00 | 0.00 | 0.00 | 86 | 1017.6 |
| 20260906050239 | 26 | 91 | 0.0 | 0.0 | 0.00 | 0.00 | 0.00 | 86 | 1017.8 |
| 20260906045738 | 26 | 116 | 0.0 | 0.0 | 0.00 | 0.00 | 0.00 | 87 | 1017.7 |
| 20260906045233 | 26 | 116 | 0.0 | 0.0 | 0.00 | 0.00 | 0.00 | 87 | 1017.7 |
| 20260906044728 | 26 | 116 | 0.0 | 0.0 | 0.00 | 0.00 | 0.00 | 87 | 1017.6 |
| 20260906044224 | 26 | 116 | 0.0 | 0.0 | 0.00 | 0.00 | 0.00 | 87 | 1017.5 |
| 20260906043720 | 26 | 116 | 0.0 | 0.0 | 0.00 | 0.00 | 0.00 | 87 | 1017.5 |
| 20260906043216 | 26 | 116 | 0.0 | 0.0 | 0.00 | 0.00 | 0.00 | 86 | 1017.5 |
| 20260906042715 | 26 | 116 | 0.0 | 0.0 | 0.00 | 0.00 | 0.00 | 87 | 1017.4 |
| 20260906042214 | 26 | 116 | 0.0 | 0.0 | 0.00 | 0.00 | 0.00 | 87 | 1017.4 |
| 20260906041710 | 26 | 116 | 0.0 | 0.0 | 0.00 | 0.00 | 0.00 | 86 | 1017.4 |
| 20260906041205 | 26 | 116 | 0.0 | 0.0 | 0.00 | 0.00 | 0.00 | 85 | 1017.5 |
| 20260906040701 | 26 | 116 | 0.0 | 0.0 | 0.00 | 0.00 | 0.00 | 86 | 1017.4 |
| 20260906040156 | 26 | 116 | 0.0 | 0.0 | 0.00 | 0.00 | 0.00 | 87 | 1017.3 |
| 20260906035651 | 26 | 116 | 0.0 | 0.0 | 0.00 | 0.00 | 0.00 | 86 | 1017.3 |
| 20260906035147 | 26 | 116 | 0.0 | 0.0 | 0.00 | 0.00 | 0.00 | 85 | 1017.1 |
| 20260906034641 | 26 | 116 | 0.0 | 0.0 | 0.00 | 0.00 | 0.00 | 85 | 1017.3 |
| 20260906034136 | 26 | 116 | 0.0 | 0.0 | 0.00 | 0.00 | 0.00 | 85 | 1017.0 |
| 20260906033631 | 27 | 116 | 0.0 | 0.0 | 0.00 | 0.00 | 0.00 | 86 | 1017.0 |
| 20260906033126 | 27 | 116 | 0.0 | 0.0 | 0.00 | 0.00 | 0.00 | 84 | 1017.0 |
| 20260906032623 | 26 | 116 | 0.0 | 0.0 | 0.00 | 0.00 | 0.00 | 83 | 1017.0 |
| 20260906032122 | 26 | 116 | 0.0 | 0.0 | 0.00 | 0.00 | 0.00 | 84 | 1016.8 |
| 20260906031618 | 26 | 116 | 0.0 | 0.0 | 0.00 | 0.00 | 0.00 | 84 | 1016.7 |
| 20260906031114 | 27 | 116 | 0.0 | 0.0 | 0.00 | 0.00 | 0.00 | 84 | 1016.9 |
| 20260906030612 | 27 | 116 | 0.0 | 0.0 | 0.00 | 0.00 | 0.00 | 83 | 1016.8 |
| 20260906030108 | 27 | 116 | 0.0 | 0.0 | 0.00 | 0.00 | 0.00 | 82 | 1016.7 |
| 20260906025607 | 27 | 117 | 0.0 | 0.0 | 0.00 | 0.00 | 0.00 | 82 | 1016.9 |
| 20260906025106 | 27 | 102 | 0.0 | 0.0 | 0.00 | 0.00 | 0.00 | 85 | 1016.7 |
| 20260906024601 | 27 | 102 | 0.0 | 0.0 | 0.00 | 0.00 | 0.00 | 82 | 1016.6 |
| 20260906024055 | 27 | 102 | 0.0 | 0.0 | 0.00 | 0.00 | 0.00 | 81 | 1016.5 |
| 20260906023552 | 27 | 102 | 0.0 | 0.0 | 0.00 | 0.00 | 0.00 | 80 | 1016.6 |
| 20260906023052 | 27 | 102 | 0.0 | 0.0 | 0.00 | 0.00 | 0.00 | 80 | 1016.5 |
| 20260906022547 | 27 | 102 | 0.0 | 0.0 | 0.00 | 0.00 | 0.00 | 80 | 1016.5 |
| 20260906022042 | 27 | 102 | 0.0 | 0.0 | 0.00 | 0.00 | 0.00 | 80 | 1016.6 |
| 20260906021538 | 27 | 102 | 0.0 | 0.0 | 0.00 | 0.00 | 0.00 | 80 | 1016.3 |
| 20260906021036 | 27 | 102 | 0.0 | 0.0 | 0.00 | 0.00 | 0.00 | 81 | 1016.1 |
| 20260906020531 | 27 | 102 | 0.0 | 0.0 | 0.00 | 0.00 | 0.00 | 81 | 1016.1 |
| 20260906020031 | 27 | 102 | 0.0 | 0.0 | 0.00 | 0.00 | 0.00 | 81 | 1016.2 |
| 20260906015529 | 27 | 102 | 0.0 | 0.0 | 0.00 | 0.00 | 0.00 | 81 | 1016.2 |
| 20260906015024 | 27 | 102 | 0.0 | 0.0 | 0.00 | 0.00 | 0.00 | 81 | 1015.9 |
| 20260906014519 | 28 | 102 | 0.0 | 0.0 | 0.00 | 0.00 | 0.00 | 81 | 1015.8 |
| 20260906014015 | 28 | 102 | 0.0 | 0.0 | 0.00 | 0.00 | 0.00 | 80 | 1015.7 |
| 20260906013509 | 28 | 102 | 0.0 | 0.0 | 0.00 | 0.00 | 0.00 | 80 | 1015.7 |
| 20260906013000 | 28 | 102 | 0.0 | 0.0 | 0.00 | 0.00 | 0.00 | 80 | 1015.7 |
| 20260906012455 | 28 | 102 | 0.0 | 0.0 | 0.00 | 0.00 | 0.00 | 80 | 1015.6 |
| 20260906011954 | 28 | 100 | 0.0 | 0.0 | 0.00 | 0.00 | 0.00 | 79 | 1015.7 |
| 20260906011450 | 28 | 108 | 0.0 | 0.0 | 0.00 | 0.00 | 0.00 | 79 | 1015.5 |
| 20260906010944 | 28 | 108 | 0.0 | 0.0 | 0.00 | 0.00 | 0.00 | 78 | 1015.6 |
| 20260906010440 | 29 | 108 | 0.0 | 0.0 | 0.00 | 0.00 | 0.00 | 78 | 1015.5 |
| 20260906005937 | 30 | 98 | 0.0 | 0.0 | 0.00 | 0.00 | 0.00 | 76 | 1015.5 |
| 20260906005435 | 30 | 97 | 0.0 | 0.0 | 0.00 | 0.00 | 0.00 | 75 | 1015.5 |
| 20260906004928 | 30 | 138 | 0.0 | 0.0 | 0.00 | 0.00 | 0.00 | 75 | 1015.4 |
| 20260906004423 | 30 | 128 | 0.0 | 0.0 | 0.00 | 0.00 | 0.00 | 74 | 1015.2 |
| 20260906003919 | 30 | 134 | 0.0 | 0.0 | 0.00 | 0.00 | 0.00 | 75 | 1015.2 |
| 20260906003414 | 30 | 154 | 0.0 | 0.0 | 0.00 | 0.00 | 0.00 | 73 | 1015.3 |
| 20260906002909 | 30 | 134 | 0.0 | 0.0 | 0.00 | 0.00 | 0.00 | 74 | 1015.0 |
| 20260906002409 | 30 | 99 | 0.0 | 0.0 | 0.00 | 0.00 | 0.00 | 72 | 1015.1 |
| 20260906001904 | 31 | 96 | 0.0 | 0.0 | 0.00 | 0.00 | 0.00 | 70 | 1015.2 |
| 20260906001400 | 31 | 92 | 0.0 | 0.0 | 0.00 | 0.00 | 0.00 | 70 | 1015.2 |
| 20260906000859 | 31 | 91 | 0.0 | 0.0 | 0.00 | 0.00 | 0.00 | 70 | 1015.4 |
| 20260906000356 | 31 | 91 | 0.0 | 0.0 | 0.00 | 0.00 | 0.00 | 70 | 1015.4 |
| 20260905235849 | 32 | 91 | 0.0 | 0.0 | 0.00 | 0.00 | 0.00 | 68 | 1015.3 |
| 20260905235343 | 32 | 92 | 0.0 | 0.0 | 0.00 | 0.00 | 0.00 | 67 | 1015.3 |
| 20260905234839 | 32 | 91 | 0.0 | 0.0 | 0.00 | 0.00 | 0.00 | 65 | 1015.3 |
| 20260905234334 | 32 | 91 | 0.0 | 0.0 | 0.00 | 0.00 | 0.00 | 64 | 1015.5 |
| 20260905233829 | 33 | 91 | 0.0 | 0.0 | 0.00 | 0.00 | 0.00 | 63 | 1015.3 |
| 20260905233324 | 33 | 91 | 0.0 | 0.0 | 0.00 | 0.00 | 0.00 | 61 | 1015.4 |
| 20260905232823 | 33 | 91 | 0.0 | 0.0 | 0.00 | 0.00 | 0.00 | 59 | 1015.4 |
| 20260905232320 | 33 | 91 | 0.0 | 0.0 | 0.00 | 0.00 | 0.00 | 60 | 1015.3 |
| 20260905231815 | 33 | 91 | 0.0 | 0.0 | 0.00 | 0.00 | 0.00 | 58 | 1015.5 |
| 20260905231310 | 34 | 79 | 0.0 | 0.0 | 0.00 | 0.00 | 0.00 | 56 | 1015.4 |
| 20260905230806 | 34 | 83 | 0.0 | 0.0 | 0.00 | 0.00 | 0.00 | 56 | 1015.3 |
| 20260905230304 | 34 | 81 | 0.0 | 0.0 | 0.00 | 0.00 | 0.00 | 56 | 1015.5 |
| 20260905225804 | 35 | 104 | 0.0 | 0.0 | 0.00 | 0.00 | 0.00 | 55 | 1015.4 |
| 20260905225259 | 35 | 102 | 0.0 | 0.0 | 0.00 | 0.00 | 0.00 | 55 | 1015.4 |
| 20260905224758 | 35 | 66 | 0.0 | 1.6 | 0.00 | 0.00 | 0.00 | 54 | 1015.3 |
| 20260905224254 | 35 | 103 | 1.6 | 1.6 | 0.00 | 0.00 | 0.00 | 54 | 1015.1 |
| 20260905223749 | 35 | 239 | 1.6 | 3.2 | 0.00 | 0.00 | 0.00 | 53 | 1015.3 |
| 20260905223246 | 35 | 169 | 3.2 | 4.8 | 0.00 | 0.00 | 0.00 | 54 | 1015.3 |
| 20260905222741 | 36 | 74 | 0.0 | 0.0 | 0.00 | 0.00 | 0.00 | 48 | 1015.2 |
| 20260905222240 | 36 | 97 | 0.0 | 0.0 | 0.00 | 0.00 | 0.00 | 48 | 1015.1 |
| 20260905221736 | 37 | 87 | 0.0 | 1.6 | 0.00 | 0.00 | 0.00 | 47 | 1015.2 |
| 20260905221233 | 37 | 133 | 0.0 | 0.0 | 0.00 | 0.00 | 0.00 | 45 | 1015.0 |
| 20260905220729 | 37 | 230 | 0.0 | 1.6 | 0.00 | 0.00 | 0.00 | 45 | 1015.2 |
| 20260905220225 | 37 | 73 | 0.0 | 1.6 | 0.00 | 0.00 | 0.00 | 45 | 1015.1 |
| 20260905215724 | 37 | 129 | 0.0 | 0.0 | 0.00 | 0.00 | 0.00 | 44 | 1015.0 |
| 20260905215220 | 37 | 86 | 0.0 | 1.6 | 0.00 | 0.00 | 0.00 | 45 | 1015.1 |
| 20260905214716 | 38 | 75 | 0.0 | 3.2 | 0.00 | 0.00 | 0.00 | 43 | 1015.1 |
| 20260905214211 | 38 | 266 | 0.0 | 3.2 | 0.00 | 0.00 | 0.00 | 43 | 1015.3 |
| 20260905213706 | 38 | 127 | 0.0 | 3.2 | 0.00 | 0.00 | 0.00 | 43 | 1015.2 |
| 20260905213202 | 38 | 129 | 1.6 | 3.2 | 0.00 | 0.00 | 0.00 | 42 | 1015.1 |
| 20260905212657 | 39 | 158 | 0.0 | 0.0 | 0.00 | 0.00 | 0.00 | 41 | 1015.3 |
| 20260905212156 | 39 | 344 | 1.6 | 3.2 | 0.00 | 0.00 | 0.00 | 39 | 1015.3 |
| 20260905211650 | 40 | 319 | 0.0 | 0.0 | 0.00 | 0.00 | 0.00 | 42 | 1015.4 |
| 20260905211146 | 39 | 148 | 1.6 | 1.6 | 0.00 | 0.00 | 0.00 | 41 | 1015.3 |
| 20260905210643 | 39 | 255 | 0.0 | 1.6 | 0.00 | 0.00 | 0.00 | 41 | 1015.4 |
| 20260905210142 | 40 | 273 | 3.2 | 3.2 | 0.00 | 0.00 | 0.00 | 41 | 1015.5 |
| 20260905205641 | 39 | 281 | 0.0 | 4.8 | 0.00 | 0.00 | 0.00 | 40 | 1015.4 |
| 20260905205136 | 40 | 187 | 1.6 | 1.6 | 0.00 | 0.00 | 0.00 | 39 | 1015.6 |
| 20260905204630 | 40 | 223 | 0.0 | 3.2 | 0.00 | 0.00 | 0.00 | 41 | 1015.7 |
| 20260905204125 | 38 | 265 | 3.2 | 4.8 | 0.00 | 0.00 | 0.00 | 41 | 1015.5 |
| 20260905203620 | 39 | 129 | 0.0 | 4.8 | 0.00 | 0.00 | 0.00 | 43 | 1015.6 |
| 20260905203115 | 40 | 108 | 4.8 | 4.8 | 0.00 | 0.00 | 0.00 | 41 | 1015.7 |
| 20260905202610 | 40 | 288 | 1.6 | 3.2 | 0.00 | 0.00 | 0.00 | 41 | 1015.6 |
| 20260905202105 | 39 | 145 | 1.6 | 3.2 | 0.00 | 0.00 | 0.00 | 42 | 1015.7 |
| 20260905201601 | 38 | 96 | 0.0 | 3.2 | 0.00 | 0.00 | 0.00 | 45 | 1015.6 |
| 20260905201100 | 38 | 112 | 1.6 | 3.2 | 0.00 | 0.00 | 0.00 | 43 | 1015.8 |
| 20260905200556 | 39 | 164 | 0.0 | 1.6 | 0.00 | 0.00 | 0.00 | 45 | 1015.8 |
| 20260905200055 | 39 | 18 | 0.0 | 3.2 | 0.00 | 0.00 | 0.00 | 43 | 1015.8 |
| 20260905195549 | 40 | 292 | 0.0 | 3.2 | 0.00 | 0.00 | 0.00 | 41 | 1015.8 |
| 20260905195040 | 39 | 205 | 0.0 | 3.2 | 0.00 | 0.00 | 0.00 | 42 | 1016.1 |
| 20260905194539 | 38 | 275 | 1.6 | 3.2 | 0.00 | 0.00 | 0.00 | 43 | 1016.1 |
| 20260905194039 | 38 | 109 | 0.0 | 1.6 | 0.00 | 0.00 | 0.00 | 45 | 1016.3 |
| 20260905193534 | 37 | 84 | 0.0 | 3.2 | 0.00 | 0.00 | 0.00 | 45 | 1016.3 |
| 20260905193029 | 37 | 65 | 0.0 | 0.0 | 0.00 | 0.00 | 0.00 | 47 | 1016.6 |
| 20260905192524 | 38 | 127 | 3.2 | 3.2 | 0.00 | 0.00 | 0.00 | 45 | 1016.6 |
| 20260905192020 | 39 | 111 | 1.6 | 3.2 | 0.00 | 0.00 | 0.00 | 46 | 1016.8 |
| 20260905191519 | 39 | 260 | 1.6 | 3.2 | 0.00 | 0.00 | 0.00 | 43 | 1016.5 |
| 20260905191018 | 39 | 235 | 0.0 | 3.2 | 0.00 | 0.00 | 0.00 | 44 | 1016.6 |
| 20260905190516 | 38 | 260 | 1.6 | 3.2 | 0.00 | 0.00 | 0.00 | 44 | 1016.6 |
| 20260905190015 | 39 | 266 | 1.6 | 3.2 | 0.00 | 0.00 | 0.00 | 44 | 1016.8 |
| 20260905185510 | 38 | 335 | 0.0 | 3.2 | 0.00 | 0.00 | 0.00 | 45 | 1016.9 |
| 20260905185009 | 38 | 356 | 1.6 | 3.2 | 0.00 | 0.00 | 0.00 | 46 | 1017.0 |
| 20260905184504 | 37 | 199 | 1.6 | 4.8 | 0.00 | 0.00 | 0.00 | 46 | 1017.0 |
| 20260905184003 | 37 | 136 | 1.6 | 3.2 | 0.00 | 0.00 | 0.00 | 48 | 1016.9 |
| 20260905183502 | 37 | 119 | 1.6 | 3.2 | 0.00 | 0.00 | 0.00 | 48 | 1017.2 |
| 20260905182957 | 37 | 114 | 3.2 | 3.2 | 0.00 | 0.00 | 0.00 | 51 | 1017.1 |
| 20260905182457 | 38 | 165 | 1.6 | 3.2 | 0.00 | 0.00 | 0.00 | 48 | 1017.1 |
| 20260905181952 | 38 | 166 | 0.0 | 3.2 | 0.00 | 0.00 | 0.00 | 49 | 1017.1 |
| 20260905181447 | 37 | 211 | 0.0 | 3.2 | 0.00 | 0.00 | 0.00 | 52 | 1017.1 |
| 20260905180946 | 37 | 96 | 0.0 | 1.6 | 0.00 | 0.00 | 0.00 | 52 | 1017.2 |
| 20260905180441 | 37 | 98 | 1.6 | 1.6 | 0.00 | 0.00 | 0.00 | 51 | 1017.3 |
| 20260905175936 | 37 | 3 | 0.0 | 3.2 | 0.00 | 0.00 | 0.00 | 51 | 1017.4 |
| 20260905175435 | 37 | 267 | 3.2 | 3.2 | 0.00 | 0.00 | 0.00 | 52 | 1017.5 |
| 20260905174931 | 37 | 57 | 1.6 | 3.2 | 0.00 | 0.00 | 0.00 | 51 | 1017.3 |
| 20260905174426 | 37 | 256 | 0.0 | 1.6 | 0.00 | 0.00 | 0.00 | 51 | 1017.5 |
| 20260905173922 | 37 | 26 | 1.6 | 1.6 | 0.00 | 0.00 | 0.00 | 51 | 1017.5 |
| 20260905173418 | 36 | 73 | 0.0 | 1.6 | 0.00 | 0.00 | 0.00 | 52 | 1017.7 |
| 20260905172913 | 36 | 219 | 1.6 | 1.6 | 0.00 | 0.00 | 0.00 | 52 | 1017.4 |
| 20260905172410 | 36 | 105 | 0.0 | 4.8 | 0.00 | 0.00 | 0.00 | 51 | 1017.7 |
| 20260905171906 | 36 | 57 | 0.0 | 3.2 | 0.00 | 0.00 | 0.00 | 51 | 1017.5 |
| 20260905171403 | 36 | 280 | 3.2 | 3.2 | 0.00 | 0.00 | 0.00 | 53 | 1017.7 |
| 20260905170859 | 36 | 251 | 1.6 | 3.2 | 0.00 | 0.00 | 0.00 | 52 | 1017.8 |
| 20260905170355 | 36 | 220 | 0.0 | 4.8 | 0.00 | 0.00 | 0.00 | 53 | 1017.9 |
| 20260905165854 | 35 | 257 | 3.2 | 6.4 | 0.00 | 0.00 | 0.00 | 54 | 1018.0 |
| 20260905165349 | 35 | 298 | 1.6 | 4.8 | 0.00 | 0.00 | 0.00 | 55 | 1017.9 |
| 20260905164844 | 35 | 266 | 1.6 | 3.2 | 0.00 | 0.00 | 0.00 | 56 | 1018.1 |
| 20260905164339 | 35 | 134 | 1.6 | 1.6 | 0.00 | 0.00 | 0.00 | 57 | 1018.0 |
| 20260905163834 | 35 | 208 | 3.2 | 6.4 | 0.00 | 0.00 | 0.00 | 57 | 1018.2 |
| 20260905163330 | 35 | 247 | 3.2 | 4.8 | 0.00 | 0.00 | 0.00 | 57 | 1018.3 |
| 20260905162826 | 35 | 189 | 1.6 | 3.2 | 0.00 | 0.00 | 0.00 | 55 | 1018.3 |
| 20260905162320 | 34 | 293 | 1.6 | 3.2 | 0.00 | 0.00 | 0.00 | 58 | 1018.4 |
| 20260905161814 | 34 | 340 | 1.6 | 3.2 | 0.00 | 0.00 | 0.00 | 59 | 1018.3 |
| 20260905161309 | 34 | 224 | 0.0 | 4.8 | 0.00 | 0.00 | 0.00 | 58 | 1018.4 |
| 20260905160807 | 34 | 255 | 0.0 | 3.2 | 0.00 | 0.00 | 0.00 | 57 | 1018.5 |
| 20260905160301 | 33 | 152 | 0.0 | 1.6 | 0.00 | 0.00 | 0.00 | 59 | 1018.5 |
| 20260905155756 | 33 | 260 | 1.6 | 3.2 | 0.00 | 0.00 | 0.00 | 59 | 1018.6 |
| 20260905155255 | 33 | 254 | 1.6 | 6.4 | 0.00 | 0.00 | 0.00 | 61 | 1018.5 |
| 20260905154749 | 33 | 246 | 3.2 | 4.8 | 0.00 | 0.00 | 0.00 | 60 | 1018.7 |
| 20260905154245 | 33 | 266 | 3.2 | 4.8 | 0.00 | 0.00 | 0.00 | 61 | 1018.5 |
| 20260905153740 | 33 | 221 | 1.6 | 4.8 | 0.00 | 0.00 | 0.00 | 61 | 1018.6 |
| 20260905153236 | 32 | 265 | 3.2 | 3.2 | 0.00 | 0.00 | 0.00 | 62 | 1018.5 |
| 20260905152730 | 32 | 243 | 1.6 | 4.8 | 0.00 | 0.00 | 0.00 | 62 | 1018.5 |
| 20260905152225 | 32 | 297 | 4.8 | 6.4 | 0.00 | 0.00 | 0.00 | 62 | 1018.6 |
| 20260905151724 | 32 | 286 | 0.0 | 3.2 | 0.00 | 0.00 | 0.00 | 64 | 1018.7 |
| 20260905151221 | 32 | 163 | 1.6 | 3.2 | 0.00 | 0.00 | 0.00 | 64 | 1018.5 |
| 20260905150715 | 32 | 267 | 1.6 | 4.8 | 0.00 | 0.00 | 0.00 | 64 | 1018.6 |
| 20260905150214 | 31 | 328 | 3.2 | 4.8 | 0.00 | 0.00 | 0.00 | 65 | 1018.4 |
| 20260905145712 | 31 | 283 | 1.6 | 4.8 | 0.00 | 0.00 | 0.00 | 65 | 1018.6 |
| 20260905145207 | 31 | 273 | 3.2 | 3.2 | 0.00 | 0.00 | 0.00 | 65 | 1018.4 |
| 20260905144706 | 31 | 304 | 3.2 | 3.2 | 0.00 | 0.00 | 0.00 | 65 | 1018.3 |
| 20260905144206 | 31 | 281 | 1.6 | 3.2 | 0.00 | 0.00 | 0.00 | 66 | 1018.6 |
| 20260905143705 | 31 | 262 | 4.8 | 4.8 | 0.00 | 0.00 | 0.00 | 66 | 1018.4 |
| 20260905143200 | 31 | 274 | 3.2 | 4.8 | 0.00 | 0.00 | 0.00 | 68 | 1018.4 |
| 20260905142658 | 31 | 340 | 1.6 | 3.2 | 0.00 | 0.00 | 0.00 | 69 | 1018.4 |
| 20260905142153 | 30 | 264 | 3.2 | 3.2 | 0.00 | 0.00 | 0.00 | 70 | 1018.5 |
| 20260905141648 | 30 | 252 | 1.6 | 3.2 | 0.00 | 0.00 | 0.00 | 70 | 1018.5 |
| 20260905141144 | 30 | 234 | 3.2 | 3.2 | 0.00 | 0.00 | 0.00 | 71 | 1018.6 |
| 20260905140639 | 30 | 295 | 0.0 | 3.2 | 0.00 | 0.00 | 0.00 | 71 | 1018.6 |
| 20260905140138 | 30 | 280 | 1.6 | 3.2 | 0.00 | 0.00 | 0.00 | 72 | 1018.6 |
| 20260905135634 | 30 | 285 | 1.6 | 3.2 | 0.00 | 0.00 | 0.00 | 71 | 1018.6 |
| 20260905135129 | 30 | 295 | 0.0 | 3.2 | 0.00 | 0.00 | 0.00 | 73 | 1018.5 |
| 20260905134624 | 29 | 305 | 1.6 | 3.2 | 0.00 | 0.00 | 0.00 | 74 | 1018.4 |
| 20260905134122 | 28 | 264 | 0.0 | 1.6 | 0.00 | 0.00 | 0.00 | 74 | 1018.5 |